Weather History for KFNT - September, 2013

Change the Weather History Date:

Sunday, September 1, 2013

  Actual Average Record
Temperature  
Mean Temperature 71 °F 66 °F  
Max Temperature 80 °F 77 °F 97 °F (1953)
Min Temperature 62 °F 55 °F 40 °F (1967)
Degree Days  
Heating Degree Days 0 2  
Month to date heating degree days 0 2  
Since 1 July heating degree days 22 46  
Cooling Degree Days 6 3  
Month to date cooling degree days 6 3  
Year to date cooling degree days 676 480  
Growing Degree Days 21 (Base 50)    
Moisture  
Dew Point 64 °F    
Average Humidity 82    
Maximum Humidity 93    
Minimum Humidity 71    
Precipitation  
Precipitation 0.06 in 0.12 in 1.13 in (1934)
Month to date precipitation 0.06 0.12  
Year to date precipitation 25.65 20.68  
Snow  
Snow 0.00 in 0.00 in 0.00 in ()
Month to date snowfall 0.0 0.0  
Since 1 July snowfall 0.0 0.0  
Since 1 September snowfall 0.0 0.0  
Snow Depth 0.00 in    
Sea Level Pressure  
Sea Level Pressure 29.80 in    
Wind  
Wind Speed 3 mph (ESE)    
Max Wind Speed 13 mph    
Max Gust Speed -    
Visibility 5 miles    
Events Fog , Rain , Thunderstorm    
T = Trace of Precipitation, MM = Missing Value Source: NWS Daily Summary

Daily Weather History Graph

Daily Weather History Graph

Search for Another Location

Airport or City:

Trip Planner

Search our weather history database for the weather conditions in past years. The results will help you decide how hot, cold, wet, or windy it might be!

Date:

Astronomy

Sep. 01, 2013 Rise Set
Actual Time 6:59 AM EDT 8:09 PM EDT
Civil Twilight 6:30 AM EDT 8:38 PM EDT
Nautical Twilight 5:55 AM EDT 9:13 PM EDT
Astronomical Twilight 5:18 AM EDT 9:49 PM EDT
Moon 3:17 AM EDT 5:49 PM EDT
Length of Visible Light 14h 07m
Length of Day
13h 09m
Waning Crescent, 14% of the Moon is Illuminated
Sep 1
Waning Crescent
Sep 5
New
Sep 12
First Quarter
Sep 19
Full
Sep 26
Last Quarter

Hourly Weather History & Observations

Time (EDT) Temp. Dew Point Humidity Pressure Visibility Wind Dir Wind Speed Gust Speed Precip Events Conditions
12:53 AM 66.0 °F 63.0 °F 90% 29.87 in 6.0 mi Calm Calm - N/A   Mostly Cloudy
1:53 AM 66.0 °F 63.0 °F 90% 29.87 in 6.0 mi Calm Calm - N/A   Partly Cloudy
2:53 AM 64.0 °F 61.0 °F 90% 29.84 in 7.0 mi East 3.5 mph - N/A   Partly Cloudy
3:17 AM 62.6 °F 60.8 °F 94% 29.84 in 1.5 mi Calm Calm - N/A   Scattered Clouds
3:35 AM 64.4 °F 62.6 °F 94% 29.83 in 2.5 mi Calm Calm - N/A   Partly Cloudy
3:53 AM 64.0 °F 61.0 °F 90% 29.82 in 1.8 mi Calm Calm - N/A   Clear
4:01 AM 64.4 °F 62.6 °F 94% 29.82 in 2.0 mi Calm Calm - N/A   Partly Cloudy
4:18 AM 64.4 °F 60.8 °F 88% 29.82 in 4.0 mi Calm Calm - N/A   Mostly Cloudy
4:53 AM 63.0 °F 61.0 °F 93% 29.82 in 6.0 mi ENE 4.6 mph - N/A   Scattered Clouds
5:21 AM 62.6 °F 60.8 °F 94% 29.82 in 4.0 mi ENE 4.6 mph - N/A   Partly Cloudy
5:41 AM 64.4 °F 62.6 °F 94% 29.83 in 2.5 mi ENE 4.6 mph - N/A   Mostly Cloudy
5:49 AM 64.4 °F 62.6 °F 94% 29.83 in 0.5 mi ENE 3.5 mph - N/A Fog Fog
5:53 AM 64.0 °F 62.1 °F 93% 29.81 in 0.5 mi East 3.5 mph - N/A Fog Fog
6:05 AM 64.4 °F 62.6 °F 94% 29.83 in 0.2 mi ESE 3.5 mph - N/A Fog Fog
6:15 AM 64.4 °F 62.6 °F 94% 29.83 in 0.5 mi Calm Calm - N/A Fog Fog
6:30 AM 62.6 °F 60.8 °F 94% 29.83 in 1.0 mi Calm Calm - N/A   Mist
6:41 AM 62.6 °F 60.8 °F 94% 29.83 in 2.5 mi East 3.5 mph - N/A   Overcast
6:48 AM 62.6 °F 60.8 °F 94% 29.83 in 4.0 mi East 3.5 mph - N/A   Overcast
6:53 AM 63.0 °F 61.0 °F 93% 29.82 in 5.0 mi Calm Calm - N/A   Overcast
7:10 AM 64.4 °F 60.8 °F 88% 29.83 in 6.0 mi ENE 4.6 mph - N/A   Mostly Cloudy
7:53 AM 64.0 °F 62.1 °F 93% 29.82 in 5.0 mi ENE 6.9 mph - N/A   Overcast
8:53 AM 64.9 °F 62.1 °F 90% 29.80 in 6.0 mi ESE 8.1 mph - N/A   Overcast
9:53 AM 66.9 °F 63.0 °F 87% 29.81 in 8.0 mi East 6.9 mph - N/A   Overcast
10:20 AM 69.8 °F 62.6 °F 78% 29.81 in 9.0 mi ESE 4.6 mph - N/A   Overcast
10:53 AM 69.1 °F 63.0 °F 81% 29.81 in 10.0 mi East 3.5 mph - N/A   Overcast
11:53 AM 70.0 °F 63.0 °F 78% 29.82 in 5.0 mi Calm Calm - 0.00 in Rain Light Rain
12:53 PM 71.1 °F 64.9 °F 81% 29.81 in 9.0 mi East 4.6 mph - 0.00 in   Overcast
1:34 PM 71.6 °F 64.4 °F 78% 29.81 in 9.0 mi Calm Calm - N/A   Overcast
1:53 PM 73.0 °F 66.0 °F 79% 29.79 in 8.0 mi SE 4.6 mph - N/A   Overcast
2:53 PM 75.0 °F 66.9 °F 76% 29.78 in 7.0 mi Calm Calm - N/A   Overcast
3:10 PM 75.2 °F 66.2 °F 73% 29.79 in 7.0 mi Calm Calm - N/A   Overcast
3:53 PM 75.9 °F 66.9 °F 74% 29.78 in 7.0 mi Calm Calm - N/A   Overcast
4:40 PM 77.0 °F 66.2 °F 69% 29.78 in 7.0 mi Calm Calm - N/A   Mostly Cloudy
4:53 PM 77.0 °F 68.0 °F 74% 29.77 in 7.0 mi Calm Calm - N/A   Mostly Cloudy
5:53 PM 79.0 °F 68.0 °F 69% 29.74 in 7.0 mi SSE 3.5 mph - N/A   Clear
6:29 PM 78.8 °F 69.8 °F 74% 29.74 in 7.0 mi South 4.6 mph - N/A   Mostly Cloudy
6:53 PM 78.1 °F 69.1 °F 74% 29.73 in 7.0 mi South 3.5 mph - N/A   Scattered Clouds
7:53 PM 75.9 °F 68.0 °F 76% 29.74 in 6.0 mi Calm Calm - N/A   Haze
8:53 PM 72.0 °F 68.0 °F 87% 29.74 in 6.0 mi Calm Calm - N/A   Clear
9:53 PM 72.0 °F 68.0 °F 87% 29.76 in 5.0 mi East 3.5 mph - N/A   Overcast
10:53 PM 71.1 °F 66.9 °F 87% 29.73 in 4.0 mi SE 4.6 mph - N/A   Partly Cloudy
11:07 PM 71.6 °F 68.0 °F 88% 29.74 in 4.0 mi SSE 4.6 mph - N/A Thunderstorm Clear
11:18 PM 71.6 °F 68.0 °F 88% 29.74 in 5.0 mi South 4.6 mph - N/A Thunderstorm Partly Cloudy
11:53 PM 72.0 °F 69.1 °F 91% 29.74 in 2.5 mi South 5.8 mph - 0.04 in Rain , Thunderstorm Rain